VJC330 VVPQ-VVTS

Flight info

Callsign VJC330
Flight time 0h 44m
Altitude 23000
Route NORTI1A TUNPO W8 RG W16 TRN TRN5K
Aircraft A21N/M-SDE3FGHIRWY/LB1

Departure

Time 2026-04-20 05:23
Airport Phú Quốc International Airport (VVPQ)

Arrival

Time 2026-04-20 06:07
Airport Tan Son Nhat International Airport (VVTS)
Time Latitude Longitude Altitude Speed Heading
2026-04-20 05:02 10.16410 103.99851 33 ft 0 kts 185°
2026-04-20 05:10 10.16411 103.99851 33 ft 0 kts 185°
2026-04-20 05:10 10.16422 103.99853 33 ft 2 kts 187°
2026-04-20 05:11 10.16437 103.99855 33 ft 2 kts 186°
2026-04-20 05:11 10.16453 103.99857 33 ft 2 kts 186°
2026-04-20 05:11 10.16469 103.99858 33 ft 2 kts 186°
2026-04-20 05:11 10.16484 103.99860 33 ft 2 kts 208°
2026-04-20 05:12 10.16495 103.99870 33 ft 2 kts 232°
2026-04-20 05:12 10.16502 103.99883 33 ft 2 kts 259°
2026-04-20 05:12 10.16502 103.99899 33 ft 2 kts 280°
2026-04-20 05:12 10.16500 103.99914 33 ft 2 kts 273°
2026-04-20 05:13 10.16499 103.99927 33 ft 1 kts 275°
2026-04-20 05:13 10.16499 103.99929 33 ft 0 kts 275°
2026-04-20 05:15 10.16500 103.99925 33 ft 2 kts 275°
2026-04-20 05:15 10.16502 103.99898 33 ft 5 kts 276°
2026-04-20 05:15 10.16514 103.99857 33 ft 6 kts 312°
2026-04-20 05:15 10.16564 103.99850 33 ft 7 kts
2026-04-20 05:16 10.16622 103.99854 33 ft 8 kts
2026-04-20 05:16 10.16685 103.99861 33 ft 9 kts
2026-04-20 05:16 10.16747 103.99849 33 ft 9 kts 311°
2026-04-20 05:16 10.16764 103.99778 33 ft 10 kts 276°
2026-04-20 05:17 10.16772 103.99698 33 ft 12 kts 275°
2026-04-20 05:17 10.16781 103.99608 33 ft 13 kts 276°
2026-04-20 05:17 10.16791 103.99506 33 ft 15 kts 276°
2026-04-20 05:17 10.16802 103.99395 33 ft 16 kts 276°
2026-04-20 05:18 10.16814 103.99275 33 ft 17 kts 276°
2026-04-20 05:18 10.16826 103.99149 33 ft 18 kts 275°
2026-04-20 05:18 10.16839 103.99021 33 ft 18 kts 276°
2026-04-20 05:18 10.16851 103.98895 33 ft 17 kts 275°
2026-04-20 05:19 10.16864 103.98769 33 ft 17 kts 276°
2026-04-20 05:19 10.16876 103.98646 33 ft 17 kts 276°
2026-04-20 05:19 10.16888 103.98523 33 ft 17 kts 276°
2026-04-20 05:19 10.16900 103.98401 33 ft 17 kts 276°
2026-04-20 05:20 10.16912 103.98280 33 ft 17 kts 275°
2026-04-20 05:20 10.16924 103.98159 33 ft 17 kts 276°
2026-04-20 05:20 10.16936 103.98038 33 ft 17 kts 276°
2026-04-20 05:20 10.16955 103.97949 33 ft 9 kts 327°
2026-04-20 05:21 10.17027 103.97948 33 ft 10 kts
2026-04-20 05:21 10.17095 103.97958 33 ft 6 kts 11°
2026-04-20 05:21 10.17114 103.97991 33 ft 5 kts 94°
2026-04-20 05:21 10.17112 103.98010 33 ft 4 kts 95°
2026-04-20 05:22 10.17094 103.98199 33 ft 60 kts 96°
2026-04-20 05:22 10.17030 103.98856 33 ft 124 kts 96°
2026-04-20 05:22 10.16933 103.99901 123 ft 164 kts 95°
2026-04-20 05:22 10.16815 104.01063 609 ft 168 kts 96°
2026-04-20 05:23 10.16692 104.02247 1210 ft 171 kts 96°
2026-04-20 05:23 10.16574 104.03444 1807 ft 172 kts 96°
2026-04-20 05:23 10.16452 104.04672 2099 ft 181 kts 96°
2026-04-20 05:23 10.16321 104.05988 2347 ft 194 kts 96°
2026-04-20 05:24 10.16181 104.07395 2607 ft 208 kts 96°
2026-04-20 05:24 10.16031 104.08903 2873 ft 223 kts 96°
2026-04-20 05:24 10.15868 104.10545 3090 ft 243 kts 96°
2026-04-20 05:24 10.15692 104.12326 3419 ft 260 kts 96°
2026-04-20 05:25 10.15508 104.14175 3966 ft 267 kts 96°
2026-04-20 05:25 10.15324 104.16046 4650 ft 269 kts 95°
2026-04-20 05:25 10.15140 104.17934 5332 ft 272 kts 95°
2026-04-20 05:25 10.14954 104.19843 6014 ft 275 kts 95°
2026-04-20 05:26 10.14767 104.21771 6698 ft 278 kts 95°
2026-04-20 05:26 10.14579 104.23714 7415 ft 279 kts 95°
2026-04-20 05:26 10.14389 104.25671 8109 ft 281 kts 95°
2026-04-20 05:26 10.14197 104.27649 8735 ft 285 kts 95°
2026-04-20 05:27 10.14003 104.29645 9412 ft 287 kts 95°
2026-04-20 05:27 10.13807 104.31657 10052 ft 289 kts 95°
2026-04-20 05:27 10.13597 104.33711 10473 ft 300 kts 96°
2026-04-20 05:27 10.13241 104.35853 10740 ft 316 kts 101°
2026-04-20 05:28 10.12680 104.38062 10990 ft 331 kts 105°
2026-04-20 05:28 10.11990 104.40322 11424 ft 339 kts 106°
2026-04-20 05:28 10.11278 104.42607 12007 ft 342 kts 106°
2026-04-20 05:28 10.10561 104.44907 12576 ft 344 kts 106°
2026-04-20 05:29 10.09842 104.47224 13127 ft 347 kts 106°
2026-04-20 05:29 10.09119 104.49561 13648 ft 350 kts 106°
2026-04-20 05:29 10.08391 104.51923 14136 ft 353 kts 106°
2026-04-20 05:29 10.07654 104.54306 14616 ft 356 kts 106°
2026-04-20 05:30 10.06912 104.56709 15106 ft 359 kts 106°
2026-04-20 05:30 10.06232 104.59149 15581 ft 361 kts 103°
2026-04-20 05:30 10.05702 104.61644 16026 ft 364 kts 100°
2026-04-20 05:30 10.05223 104.64168 16463 ft 366 kts 100°
2026-04-20 05:31 10.04747 104.66717 16876 ft 370 kts 100°
2026-04-20 05:31 10.04266 104.69287 17268 ft 373 kts 100°
2026-04-20 05:31 10.03779 104.71880 17668 ft 376 kts 100°
2026-04-20 05:31 10.03287 104.74486 18078 ft 378 kts 100°
2026-04-20 05:32 10.02792 104.77107 18477 ft 381 kts 100°
2026-04-20 05:32 10.02294 104.79745 18853 ft 383 kts 100°
2026-04-20 05:32 10.01793 104.82398 19220 ft 385 kts 100°
2026-04-20 05:32 10.01290 104.85066 19588 ft 387 kts 100°
2026-04-20 05:33 10.00782 104.87750 19945 ft 389 kts 99°
2026-04-20 05:33 10.00272 104.90448 20308 ft 391 kts 99°
2026-04-20 05:33 9.99760 104.93160 20647 ft 393 kts 99°
2026-04-20 05:33 9.99244 104.95885 20984 ft 395 kts 99°
2026-04-20 05:34 9.98726 104.98623 21319 ft 397 kts 99°
2026-04-20 05:34 9.98205 105.01370 21658 ft 398 kts 99°
2026-04-20 05:34 9.97157 105.06900 22287 ft 402 kts 99°
2026-04-20 05:35 9.96631 105.09684 22605 ft 404 kts 98°
2026-04-20 05:35 9.96337 105.12507 22828 ft 404 kts 90°
2026-04-20 05:35 9.96450 105.15339 22843 ft 402 kts 82°
2026-04-20 05:35 9.96935 105.18121 22854 ft 401 kts 76°
2026-04-20 05:36 9.97540 105.20879 22852 ft 402 kts 76°
2026-04-20 05:36 9.98159 105.23637 22854 ft 402 kts 76°
2026-04-20 05:36 9.98775 105.26398 22852 ft 402 kts 76°
2026-04-20 05:36 9.99384 105.29163 22852 ft 402 kts 76°
2026-04-20 05:37 9.99988 105.31930 22852 ft 402 kts 76°
2026-04-20 05:37 10.00589 105.34699 22854 ft 402 kts 76°
2026-04-20 05:37 10.01190 105.37470 22855 ft 402 kts 76°
2026-04-20 05:37 10.01789 105.40240 22856 ft 402 kts 76°
2026-04-20 05:38 10.02389 105.43010 22857 ft 402 kts 76°
2026-04-20 05:38 10.02989 105.45779 22859 ft 402 kts 76°
2026-04-20 05:38 10.03589 105.48544 22861 ft 402 kts 76°
2026-04-20 05:38 10.04188 105.51311 22859 ft 402 kts 76°
2026-04-20 05:39 10.04789 105.54082 22861 ft 403 kts 76°
2026-04-20 05:39 10.05389 105.56858 22866 ft 404 kts 76°
2026-04-20 05:39 10.05982 105.59605 22866 ft 404 kts 76°
2026-04-20 05:39 10.06587 105.62406 22863 ft 404 kts 76°
2026-04-20 05:40 10.07183 105.65169 22862 ft 404 kts 76°
2026-04-20 05:40 10.07782 105.67945 22868 ft 404 kts 76°
2026-04-20 05:40 10.08467 105.70699 22869 ft 403 kts 72°
2026-04-20 05:40 10.09304 105.73404 22870 ft 402 kts 70°
2026-04-20 05:41 10.10207 105.76089 22873 ft 403 kts 69°
2026-04-20 05:41 10.11119 105.78773 22874 ft 403 kts 69°
2026-04-20 05:41 10.12030 105.81459 22872 ft 403 kts 69°
2026-04-20 05:41 10.12941 105.84145 22868 ft 403 kts 70°
2026-04-20 05:42 10.13851 105.86835 22863 ft 404 kts 70°
2026-04-20 05:42 10.14761 105.89529 22860 ft 404 kts 70°
2026-04-20 05:42 10.15670 105.92223 22859 ft 404 kts 70°
2026-04-20 05:42 10.16579 105.94918 22857 ft 404 kts 70°
2026-04-20 05:43 10.17488 105.97617 22701 ft 404 kts 69°
2026-04-20 05:43 10.18393 106.00302 22459 ft 402 kts 69°
2026-04-20 05:43 10.19294 106.02974 22213 ft 400 kts 69°
2026-04-20 05:43 10.20191 106.05637 21983 ft 399 kts 70°
2026-04-20 05:44 10.21084 106.08290 21754 ft 397 kts 70°
2026-04-20 05:44 10.21974 106.10933 21531 ft 396 kts 70°
2026-04-20 05:44 10.22861 106.13570 21303 ft 395 kts 70°
2026-04-20 05:44 10.23745 106.16198 21055 ft 393 kts 70°
2026-04-20 05:45 10.24626 106.18819 20786 ft 392 kts 70°
2026-04-20 05:45 10.25503 106.21426 20413 ft 390 kts 70°
2026-04-20 05:45 10.26571 106.23933 19980 ft 386 kts 61°
2026-04-20 05:45 10.28022 106.26204 19520 ft 383 kts 52°
2026-04-20 05:46 10.29775 106.28226 19030 ft 381 kts 46°
2026-04-20 05:46 10.31432 106.29984 18596 ft 379 kts 46°
2026-04-20 05:46 10.32037 106.30619 18447 ft 378 kts 46°
2026-04-20 05:46 10.33093 106.31727 18182 ft 377 kts 46°
2026-04-20 05:47 10.34491 106.33195 17832 ft 375 kts 46°
2026-04-20 05:47 10.36301 106.35104 17352 ft 373 kts 46°
2026-04-20 05:47 10.36592 106.35412 17270 ft 373 kts 46°
2026-04-20 05:48 10.37028 106.35873 17149 ft 373 kts 46°
2026-04-20 05:48 10.37818 106.36711 16937 ft 372 kts 46°
2026-04-20 05:48 10.38988 106.37954 16635 ft 370 kts 46°
2026-04-20 05:48 10.40761 106.39838 16174 ft 368 kts 46°
2026-04-20 05:49 10.41951 106.41105 15863 ft 366 kts 46°
2026-04-20 05:49 10.43704 106.42972 15387 ft 364 kts 46°
2026-04-20 05:49 10.45446 106.44828 14932 ft 362 kts 46°
2026-04-20 05:49 10.47179 106.46674 14461 ft 360 kts 46°
2026-04-20 05:50 10.48902 106.48510 13996 ft 358 kts 46°
2026-04-20 05:50 10.50613 106.50333 13523 ft 355 kts 46°
2026-04-20 05:50 10.52312 106.52145 13084 ft 353 kts 46°
2026-04-20 05:50 10.54001 106.53944 12616 ft 351 kts 46°
2026-04-20 05:51 10.55679 106.55733 12170 ft 349 kts 47°
2026-04-20 05:51 10.57073 106.57694 11876 ft 337 kts 68°
2026-04-20 05:51 10.57449 106.59944 11789 ft 319 kts 93°
2026-04-20 05:51 10.56919 106.62068 11607 ft 304 kts 111°
2026-04-20 05:52 10.56101 106.63989 11422 ft 289 kts 112°
2026-04-20 05:52 10.55319 106.65829 11260 ft 279 kts 111°
2026-04-20 05:52 10.54583 106.67615 11097 ft 270 kts 111°
2026-04-20 05:52 10.53879 106.69355 10938 ft 264 kts 110°
2026-04-20 05:53 10.53185 106.71088 10553 ft 267 kts 110°
2026-04-20 05:53 10.52485 106.72843 10135 ft 270 kts 110°
2026-04-20 05:53 10.51778 106.74614 9709 ft 272 kts 110°
2026-04-20 05:53 10.51072 106.76386 9283 ft 270 kts 110°
2026-04-20 05:54 10.50370 106.78143 8877 ft 267 kts 110°
2026-04-20 05:54 10.49673 106.79889 8466 ft 267 kts 110°
2026-04-20 05:54 10.48975 106.81641 8050 ft 268 kts 110°
2026-04-20 05:54 10.48276 106.83399 7691 ft 267 kts 109°
2026-04-20 05:55 10.47899 106.85207 7379 ft 260 kts 88°
2026-04-20 05:55 10.48241 106.86970 7119 ft 252 kts 64°
2026-04-20 05:55 10.49276 106.88342 6995 ft 241 kts 39°
2026-04-20 05:55 10.50736 106.89094 6863 ft 232 kts 14°
2026-04-20 05:56 10.52336 106.89256 6747 ft 230 kts
2026-04-20 05:56 10.53943 106.89306 6617 ft 230 kts
2026-04-20 05:56 10.55547 106.89351 6510 ft 230 kts
2026-04-20 05:56 10.57149 106.89400 6387 ft 229 kts
2026-04-20 05:57 10.58746 106.89452 6271 ft 228 kts
2026-04-20 05:57 10.60335 106.89506 6143 ft 227 kts
2026-04-20 05:57 10.61918 106.89562 6023 ft 226 kts
2026-04-20 05:57 10.63497 106.89619 5917 ft 226 kts
2026-04-20 05:58 10.65075 106.89677 5807 ft 225 kts
2026-04-20 05:58 10.66649 106.89734 5685 ft 225 kts
2026-04-20 05:58 10.68224 106.89792 5564 ft 225 kts
2026-04-20 05:58 10.69788 106.89849 5402 ft 221 kts
2026-04-20 05:59 10.71302 106.89904 5277 ft 210 kts
2026-04-20 05:59 10.72707 106.89954 5179 ft 195 kts
2026-04-20 05:59 10.74061 106.90005 5054 ft 194 kts
2026-04-20 05:59 10.75415 106.90056 4942 ft 194 kts
2026-04-20 06:00 10.76769 106.90106 4826 ft 194 kts
2026-04-20 06:00 10.78121 106.90157 4638 ft 193 kts
2026-04-20 06:00 10.79469 106.90205 4494 ft 193 kts
2026-04-20 06:00 10.80817 106.90256 4366 ft 193 kts
2026-04-20 06:01 10.82165 106.90306 4259 ft 193 kts
2026-04-20 06:01 10.83513 106.90356 4166 ft 193 kts
2026-04-20 06:01 10.84858 106.90405 4099 ft 192 kts
2026-04-20 06:01 10.86200 106.90411 4024 ft 193 kts 355°
2026-04-20 06:02 10.87375 106.89761 3793 ft 201 kts 310°
2026-04-20 06:02 10.87829 106.88438 3435 ft 201 kts 276°
2026-04-20 06:02 10.87904 106.87029 3123 ft 199 kts 272°
2026-04-20 06:02 10.87982 106.85628 2801 ft 199 kts 274°
2026-04-20 06:03 10.88118 106.84233 2481 ft 198 kts 276°
2026-04-20 06:03 10.88299 106.82847 2168 ft 198 kts 277°
2026-04-20 06:03 10.88271 106.81473 1970 ft 194 kts 254°
2026-04-20 06:03 10.87815 106.80177 1971 ft 195 kts 245°
2026-04-20 06:04 10.87275 106.78913 1965 ft 194 kts 244°
2026-04-20 06:04 10.86770 106.77685 1956 ft 177 kts 246°
2026-04-20 06:04 10.86347 106.76587 1938 ft 157 kts 246°
2026-04-20 06:04 10.85964 106.75568 1820 ft 153 kts 246°
2026-04-20 06:05 10.85590 106.74567 1625 ft 151 kts 246°
2026-04-20 06:05 10.85218 106.73573 1436 ft 150 kts 247°
2026-04-20 06:05 10.84846 106.72583 1252 ft 149 kts 247°
2026-04-20 06:05 10.84477 106.71597 1062 ft 149 kts 246°
2026-04-20 06:06 10.84103 106.70609 880 ft 150 kts 247°
2026-04-20 06:06 10.83737 106.69628 724 ft 146 kts 246°
2026-04-20 06:06 10.83379 106.68657 499 ft 145 kts 246°
2026-04-20 06:06 10.83024 106.67696 323 ft 146 kts 246°
2026-04-20 06:07 10.82663 106.66734 135 ft 147 kts 247°
2026-04-20 06:07 10.82282 106.65788 29 ft 133 kts 248°
2026-04-20 06:07 10.82019 106.65073 35 ft 83 kts 245°
2026-04-20 06:07 10.81868 106.64682 33 ft 39 kts 249°
2026-04-20 06:08 10.81784 106.64468 29 ft 24 kts 237°
2026-04-20 06:08 10.81693 106.64370 27 ft 10 kts 217°
2026-04-20 06:08 10.81633 106.64325 27 ft 8 kts 216°
2026-04-20 06:08 10.81575 106.64293 26 ft 10 kts 188°
2026-04-20 06:09 10.81505 106.64307 27 ft 10 kts 163°
2026-04-20 06:09 10.81441 106.64328 28 ft 9 kts 161°
2026-04-20 06:09 10.81381 106.64349 29 ft 9 kts 159°
2026-04-20 06:09 10.81320 106.64374 29 ft 9 kts 158°
2026-04-20 06:10 10.81259 106.64407 28 ft 10 kts 129°
2026-04-20 06:10 10.81263 106.64486 26 ft 11 kts 70°
2026-04-20 06:10 10.81294 106.64568 25 ft 13 kts 69°
2026-04-20 06:10 10.81328 106.64658 24 ft 14 kts 69°
2026-04-20 06:11 10.81366 106.64757 24 ft 15 kts 69°
2026-04-20 06:11 10.81406 106.64862 24 ft 16 kts 69°
2026-04-20 06:11 10.81447 106.64970 26 ft 16 kts 69°
2026-04-20 06:11 10.81489 106.65079 26 ft 16 kts 69°
2026-04-20 06:12 10.81528 106.65186 27 ft 16 kts 69°
2026-04-20 06:12 10.81570 106.65298 28 ft 17 kts 69°
2026-04-20 06:12 10.81613 106.65412 29 ft 17 kts 69°
2026-04-20 06:12 10.81657 106.65527 31 ft 17 kts 69°
2026-04-20 06:13 10.81699 106.65639 32 ft 16 kts 69°
2026-04-20 06:13 10.81724 106.65729 31 ft 10 kts 94°
2026-04-20 06:13 10.81699 106.65793 32 ft 9 kts 141°
2026-04-20 06:13 10.81629 106.65800 31 ft 11 kts 184°
2026-04-20 06:14 10.81551 106.65793 29 ft 11 kts 185°
2026-04-20 06:14 10.81471 106.65784 29 ft 10 kts 186°
2026-04-20 06:14 10.81396 106.65778 30 ft 10 kts 185°
2026-04-20 06:14 10.81333 106.65772 32 ft 7 kts 181°
2026-04-20 06:15 10.81290 106.65792 33 ft 6 kts 125°
2026-04-20 06:15 10.81279 106.65840 33 ft 7 kts 96°
2026-04-20 06:15 10.81274 106.65894 32 ft 5 kts 100°
2026-04-20 06:15 10.81249 106.65910 33 ft 3 kts 172°
2026-04-20 06:16 10.81236 106.65910 33 ft 0 kts 185°
2026-04-20 06:16 10.81235 106.65910 33 ft 1 kts 185°
2026-04-20 06:16 10.81221 106.65909 34 ft 0 kts 185°
2026-04-20 06:16 10.81218 106.65909 34 ft 0 kts 185°